Location: Unspecified
(44.7340°N, 0.0000°E)
Time: 02:35:23
(UTC+00:00)

OBJECT U - Visible Passes

Search period start: 04 April 2026 00:00
Search period end: 14 April 2026 00:00
Orbit: 555 x 574 km, 97.4° (Epoch: 29 March)

Date Brightness Start Highest point End Pass type
(mag) Time Alt. Az. Time Alt. Az. Time Alt. Az.
4 Apr ? 03:10:26 24° SE 03:12:33 48° ENE 03:16:27 10° N visible
4 Apr ? 04:46:25 12° WSW 04:47:52 15° W 04:50:08 10° NW visible
5 Apr ? 03:10:15 21° SE 03:12:37 48° ENE 03:16:32 10° N visible
5 Apr ? 04:46:15 12° WSW 04:47:57 14° W 04:50:12 10° NW visible
6 Apr ? 03:10:04 19° SE 03:12:42 49° ENE 03:16:36 10° N visible
6 Apr ? 04:46:03 11° WSW 04:48:01 14° W 04:50:16 10° NW visible
7 Apr ? 03:09:53 17° SE 03:12:46 49° ENE 03:16:41 10° N visible
7 Apr ? 04:45:52 10° SW 04:48:05 14° W 04:50:20 10° WNW visible
8 Apr ? 03:09:42 15° SE 03:12:49 49° ENE 03:16:44 10° N visible
8 Apr ? 04:45:56 10° SW 04:48:09 14° W 04:50:23 10° WNW visible
9 Apr ? 03:09:30 13° SE 03:12:52 49° ENE 03:16:48 10° N visible
9 Apr ? 04:45:59 10° WSW 04:48:12 14° W 04:50:26 10° WNW visible
10 Apr ? 03:09:17 12° SSE 03:12:55 50° ENE 03:16:51 10° N visible
10 Apr ? 04:46:03 10° WSW 04:48:15 14° W 04:50:28 10° WNW visible
11 Apr ? 03:09:05 10° SSE 03:12:57 50° ENE 03:16:53 10° N visible
11 Apr ? 04:46:05 10° WSW 04:48:17 14° W 04:50:30 10° WNW visible
12 Apr ? 03:09:05 10° SSE 03:12:58 50° ENE 03:16:55 10° N visible
12 Apr ? 04:46:07 10° WSW 04:48:19 14° W 04:50:31 10° WNW visible
13 Apr ? 03:09:06 10° SSE 03:13:00 50° ENE 03:16:57 10° N visible
13 Apr ? 04:46:09 10° WSW 04:48:20 14° W 04:50:32 10° WNW visible
